Location: Chakepay
(13.3931°S, 72.1925°W)
Time: 08:23:54
(UTC+00:00)

SL-16 R/B - Pass Details

Date: 15 November 2019
Orbit: 985 x 1007 km, 99.4° (Epoch: 11 December)

Event Time Altitude Azimuth Distance (km) Brightness Sun altitude
Rises 06:49:31 0° 160° (SSE) 3,742 6.2 -43.7°
Reaches altitude 10° 06:52:04 10° 156° (SSE) 2,790 5.4 -43.3°
Enters shadow 06:54:47 27° 146° (SE) 1,841 4.3 -42.8°
